When you browse on this site, cookies collect data to enhance your experience and personalize the content and advertising you see.
Visit our Privacy Policy to learn more. By continuing to use the site, you agree to this use of cookies and data.
  • In Lithuania
  • List of Countries
  • For 7 days
  • Water Temperature
  • Satellite Maps
  • Weather Map
  • Weather Widgets
  • user-avatar
    Login

    Hourly Weather Salta

    Today, 14 December, Friday

    Time Temperature Precipitation Wind Pressure Humidity
    00:00 +26°C° 0 mm 1 mps 648 mmHg 64%
    01:00 +26°C° 0 mm 1 mps 647 mmHg 63%
    02:00 +25°C° 0 mm 1 mps 647 mmHg 62%
    03:00 +25°C° 0 mm 1 mps 647 mmHg 60%
    04:00 +25°C° 0 mm 1 mps 647 mmHg 57%
    05:00 +24°C° 0 mm 2 mps 647 mmHg 55%
    06:00 +27°C° 0 mm 2 mps 648 mmHg 49%
    07:00 +29°C° 0 mm 1 mps 649 mmHg 42%
    08:00 +31°C° 0 mm 1 mps 650 mmHg 36%
    09:00 +34°C° 0 mm 2 mps 651 mmHg 32%
    10:00 +36°C° 0 mm 2 mps 651 mmHg 28%
    11:00 +37°C° 0 mm 3 mps 652 mmHg 24%
    12:00 +37°C° 0 mm 4 mps 651 mmHg 26%
    13:00 +37°C° 0 mm 5 mps 651 mmHg 29%
    14:00 +38°C° 0 mm 6 mps 651 mmHg 31%
    15:00 +34°C° 5.3 mm 5 mps 650 mmHg 43%
    16:00 +30°C° 5.3 mm 4 mps 649 mmHg 55%
    17:00 +28°C° 5.3 mm 3 mps 648 mmHg 67%
    18:00 +26°C° 5.7 mm 3 mps 649 mmHg 73%
    19:00 +25°C° 5.7 mm 3 mps 649 mmHg 78%
    20:00 +24°C° 5.7 mm 2 mps 650 mmHg 84%
    21:00 +24°C° 1.6 mm 2 mps 651 mmHg 83%
    22:00 +24°C° 1.6 mm 1 mps 652 mmHg 82%
    23:00 +23°C° 1.6 mm 1 mps 653 mmHg 81%

    Tomorrow, 15 December, Saturday

    Time Temperature Precipitation Wind Pressure Humidity
    00:00 +23°C° 0.6 mm 1 mps 652 mmHg 82%
    01:00 +23°C° 0.6 mm 1 mps 652 mmHg 84%
    02:00 +22°C° 0.6 mm 1 mps 652 mmHg 85%
    03:00 +22°C° 0.5 mm 1 mps 652 mmHg 86%
    04:00 +22°C° 0.5 mm 1 mps 652 mmHg 86%
    05:00 +22°C° 0.5 mm 1 mps 653 mmHg 87%
    06:00 +21°C° 0.4 mm 2 mps 653 mmHg 87%
    07:00 +21°C° 0.4 mm 2 mps 654 mmHg 86%
    08:00 +20°C° 0.4 mm 2 mps 654 mmHg 86%
    09:00 +21°C° 0.2 mm 2 mps 654 mmHg 84%
    10:00 +21°C° 0.2 mm 2 mps 654 mmHg 82%
    11:00 +21°C° 0.2 mm 2 mps 654 mmHg 80%
    12:00 +24°C° 0.1 mm 2 mps 653 mmHg 71%
    13:00 +26°C° 0.1 mm 2 mps 653 mmHg 61%
    14:00 +28°C° 0.1 mm 2 mps 653 mmHg 52%
    15:00 +27°C° 0.1 mm 3 mps 652 mmHg 54%
    16:00 +27°C° 0.1 mm 3 mps 651 mmHg 56%
    17:00 +26°C° 0.1 mm 3 mps 651 mmHg 58%
    18:00 +25°C° 0.1 mm 2 mps 651 mmHg 64%
    19:00 +24°C° 0.1 mm 1 mps 651 mmHg 69%
    20:00 +23°C° 0.1 mm 1 mps 652 mmHg 75%
    21:00 +22°C° 0 mm 1 mps 652 mmHg 76%
    22:00 +22°C° 0 mm 1 mps 652 mmHg 77%
    23:00 +20°C° 0 mm 0 mps 652 mmHg 78%

    Day after tomorrow, 16 December, Sunday

    Time Temperature Precipitation Wind Pressure Humidity
    00:00 +22°C° 0 mm 1 mps 651 mmHg 78%
    01:00 +21°C° 0 mm 1 mps 651 mmHg 79%
    02:00 +21°C° 0 mm 1 mps 650 mmHg 79%
    03:00 +21°C° 0 mm 1 mps 650 mmHg 80%
    04:00 +21°C° 0 mm 1 mps 650 mmHg 81%
    05:00 +21°C° 0 mm 1 mps 650 mmHg 81%
    06:00 +22°C° 0 mm 1 mps 651 mmHg 76%
    07:00 +23°C° 0 mm 1 mps 652 mmHg 70%
    08:00 +25°C° 0 mm 1 mps 652 mmHg 65%
    09:00 +26°C° 0.1 mm 2 mps 652 mmHg 60%
    10:00 +28°C° 0.1 mm 2 mps 652 mmHg 55%
    11:00 +29°C° 0.1 mm 2 mps 652 mmHg 51%
    12:00 +29°C° 0.1 mm 3 mps 652 mmHg 50%
    13:00 +30°C° 0.1 mm 3 mps 651 mmHg 49%
    14:00 +30°C° 0.1 mm 3 mps 650 mmHg 48%
    15:00 +30°C° 0 mm 3 mps 650 mmHg 50%
    16:00 +30°C° 0 mm 3 mps 649 mmHg 53%
    17:00 +29°C° 0 mm 3 mps 649 mmHg 55%
    18:00 +28°C° 0 mm 2 mps 649 mmHg 62%
    19:00 +26°C° 0 mm 2 mps 650 mmHg 68%
    20:00 +25°C° 0 mm 1 mps 650 mmHg 75%
    21:00 +24°C° 0.2 mm 1 mps 650 mmHg 75%
    22:00 +24°C° 0.2 mm 1 mps 651 mmHg 76%
    23:00 +23°C° 0.2 mm 1 mps 651 mmHg 77%

    17 December, Monday

    Time Temperature Precipitation Wind Pressure Humidity
    00:00 +23°C° 0.3 mm 1 mps 650 mmHg 76%
    01:00 +23°C° 0.3 mm 1 mps 650 mmHg 75%
    02:00 +23°C° 0.3 mm 1 mps 649 mmHg 74%
    03:00 +23°C° 0.3 mm 1 mps 649 mmHg 74%
    04:00 +23°C° 0.3 mm 1 mps 649 mmHg 73%
    05:00 +23°C° 0.3 mm 1 mps 649 mmHg 73%
    06:00 +24°C° 0.2 mm 1 mps 650 mmHg 70%
    07:00 +25°C° 0.2 mm 1 mps 651 mmHg 66%
    08:00 +26°C° 0.2 mm 1 mps 652 mmHg 63%
    09:00 +27°C° 0.1 mm 2 mps 652 mmHg 58%
    10:00 +29°C° 0.1 mm 2 mps 652 mmHg 53%
    11:00 +30°C° 0.1 mm 2 mps 653 mmHg 48%
    12:00 +30°C° 0.5 mm 2 mps 652 mmHg 48%
    13:00 +30°C° 0.5 mm 3 mps 652 mmHg 49%
    14:00 +30°C° 0.5 mm 3 mps 651 mmHg 49%
    15:00 +29°C° 0.6 mm 3 mps 651 mmHg 53%
    16:00 +29°C° 0.6 mm 2 mps 650 mmHg 56%
    17:00 +28°C° 0.6 mm 2 mps 650 mmHg 59%
    18:00 +27°C° 0.8 mm 2 mps 650 mmHg 64%
    19:00 +25°C° 0.8 mm 1 mps 650 mmHg 70%
    20:00 +24°C° 0.8 mm 1 mps 650 mmHg 75%
    21:00 +24°C° 0.4 mm 1 mps 651 mmHg 76%
    22:00 +23°C° 0.4 mm 1 mps 651 mmHg 77%
    23:00 +23°C° 0.4 mm 1 mps 651 mmHg 79%

    18 December, Tuesday

    Time Temperature Precipitation Wind Pressure Humidity
    00:00 +22°C° 1.2 mm 1 mps 651 mmHg 80%
    01:00 +22°C° 1.2 mm 1 mps 650 mmHg 82%
    02:00 +21°C° 1.2 mm 2 mps 650 mmHg 84%
    03:00 +21°C° 0.6 mm 2 mps 650 mmHg 84%
    04:00 +21°C° 0.6 mm 2 mps 650 mmHg 84%
    05:00 +20°C° 0.6 mm 2 mps 650 mmHg 84%
    06:00 +21°C° 1.2 mm 2 mps 651 mmHg 84%
    07:00 +21°C° 1.2 mm 2 mps 651 mmHg 83%
    08:00 +21°C° 1.2 mm 2 mps 652 mmHg 83%
    09:00 +23°C° 1.2 mm 2 mps 652 mmHg 81%
    10:00 +23°C° 1.2 mm 2 mps 652 mmHg 79%
    11:00 +23°C° 1.2 mm 2 mps 652 mmHg 77%
    12:00 +23°C° 2 mm 2 mps 652 mmHg 80%
    13:00 +21°C° 2 mm 2 mps 651 mmHg 83%
    14:00 +20°C° 2 mm 2 mps 651 mmHg 86%
    15:00 +20°C° 1.3 mm 2 mps 651 mmHg 85%
    16:00 +21°C° 1.3 mm 2 mps 650 mmHg 84%
    17:00 +21°C° 1.3 mm 2 mps 650 mmHg 82%
    18:00 +21°C° 0.5 mm 1 mps 650 mmHg 83%
    19:00 +21°C° 0.5 mm 1 mps 650 mmHg 84%
    20:00 +18°C° 0.5 mm 0 mps 651 mmHg 85%
    21:00 +18°C° 0.1 mm 0 mps 650 mmHg 84%
    22:00 +18°C° 0.1 mm 0 mps 650 mmHg 82%
    23:00 +18°C° 0.1 mm 0 mps 650 mmHg 81%

    19 December, Wednesday

    Time Temperature Precipitation Wind Pressure Humidity
    00:00 +18°C° 0 mm 0 mps 649 mmHg 81%
    01:00 +18°C° 0 mm 0 mps 649 mmHg 81%
    02:00 +20°C° 0 mm 1 mps 648 mmHg 81%
    03:00 +17°C° 0 mm 0 mps 648 mmHg 82%
    04:00 +17°C° 0 mm 0 mps 648 mmHg 83%
    05:00 +17°C° 0 mm 0 mps 648 mmHg 85%
    06:00 +18°C° 0 mm 0 mps 648 mmHg 80%
    07:00 +21°C° 0 mm 1 mps 649 mmHg 75%
    08:00 +23°C° 0 mm 1 mps 649 mmHg 70%
    09:00 +24°C° 0 mm 1 mps 649 mmHg 64%
    10:00 +26°C° 0 mm 2 mps 649 mmHg 58%
    11:00 +28°C° 0 mm 2 mps 649 mmHg 51%
    12:00 +28°C° 0 mm 2 mps 649 mmHg 50%
    13:00 +29°C° 0 mm 2 mps 648 mmHg 48%
    14:00 +30°C° 0 mm 3 mps 647 mmHg 46%
    15:00 +29°C° 0 mm 2 mps 647 mmHg 48%
    16:00 +29°C° 0 mm 2 mps 647 mmHg 51%
    17:00 +29°C° 0 mm 2 mps 646 mmHg 53%
    18:00 +27°C° 0.1 mm 2 mps 647 mmHg 60%
    19:00 +25°C° 0.1 mm 1 mps 647 mmHg 68%
    20:00 +24°C° 0.1 mm 1 mps 647 mmHg 75%
    21:00 +23°C° 0.2 mm 1 mps 648 mmHg 75%
    22:00 +23°C° 0.2 mm 1 mps 648 mmHg 75%
    23:00 +22°C° 0.2 mm 1 mps 649 mmHg 75%
    Show more